Wind_Speed
8 8 4 10 15 23 23 18 18 18 16 15 12 10 10 12 10 14 20 22 21 32 42 53 60 61 58 57 65 72 62 61 57 50 54 52 46 40 41 42 43 45 45
10 11 6 10 16 24 21 20 19 17 18 21 20 16 11 14 12 12 13 17 20 25 32 42 55 59 56 59 68 73 72 63 63 58 56 44 39 32 34 37 38 43 44
13 11 8 10 12 22 18 24 21 15 20 24 23 24 19 13 15 15 14 16 17 19 21 36 47 54 55 62 70 75 76 67 62 58 52 49 44 36 37 38 39 39 42
15 12 10 10 11 17 21 16 20 26 22 22 23 26 20 22 17 15 12 10 12 15 17 25 32 44 56 61 71 80 69 69 64 47 53 48 47 48 45 40 39 38 39
11 16 10 6 10 12 18 18 15 23 22 24 28 29 29 27 33 28 23 21 19 21 21 22 22 26 47 58 69 77 70 63 53 55 52 48 41 46 47 43 43 41 46
11 15 12 6 3 10 13 16 15 15 20 22 28 29 32 30 23 25 36 32 35 32 38 36 29 20 34 53 63 66 44 44 53 40 37 43 39 37 42 43 42 42 45
12 16 15 9 8 1 8 11 9 8 8 20 17 23 22 27 29 22 34 34 42 38 37 32 30 29 28 31 42 53 46 43 41 39 36 34 37 40 47 42 44 45 49
8 16 15 13 10 9 3 1 7 5 3 6 16 16 21 23 28 23 23 32 33 37 31 34 33 30 35 30 35 41 42 39 35 34 38 35 38 41 45 49 46 45 48
9 0 14 15 12 12 12 11 7 2 5 4 5 17 12 14 15 15 18 22 29 25 28 31 27 23 33 33 31 34 33 38 38 38 38 36 37 50 44 45 48 52 58
6 4 2 11 15 13 14 14 13 11 6 8 11 15 7 5 13 12 12 10 21 28 27 19 27 24 27 31 34 37 38 33 37 38 43 40 42 49 54 58 62 61 70
6 4 2 4 8 9 15 16 14 15 16 10 9 14 17 16 12 12 15 16 18 21 27 21 21 27 29 31 28 26 35 40 44 51 50 52 55 60 62 64 63 68 68
4 3 3 4 4 6 10 11 12 15 15 17 17 14 15 20 22 21 18 13 15 21 24 27 33 35 33 38 38 39 36 42 47 50 54 59 67 68 71 67 69 74 80
1 3 4 3 6 6 6 9 13 13 15 21 22 21 24 20 22 27 29 27 26 24 24 28 38 38 40 39 39 40 46 57 59 56 56 65 71 77 78 72 75 77 84
5 4 4 5 5 6 9 9 9 10 13 15 15 15 20 24 26 26 26 26 28 28 28 30 32 37 40 45 47 45 52 49 60 59 59 68 73 74 72 72 75 82 79
7 7 6 7 6 7 8 10 11 11 11 12 13 17 18 19 22 24 28 31 32 32 33 35 36 38 40 40 42 46 48 50 51 49 57 56 60 71 71 76 78 71 64
8 7 8 11 10 8 9 10 10 11 12 13 15 15 17 20 21 22 24 25 27 28 30 32 36 38 40 44 47 49 51 53 54 56 61 61 58 60 64 67 64 60 58
10 10 10 9 10 14 15 12 13 13 13 12 10 11 13 17 19 20 20 21 21 24 26 28 30 30 31 31 33 35 38 41 44 46 48 51 52 52 54 53 53 58 60
13 10 11 12 11 13 15 17 16 17 16 14 13 12 11 13 15 17 19 20 20 22 25 27 26 26 27 27 27 30 32 35 38 41 44 47 48 49 48 50 54 58 62
16 15 13 13 12 16 16 17 20 20 19 20 18 16 15 17 19 20 22 24 24 23 25 24 24 25 26 28 29 30 32 34 36 39 41 42 45 47 49 53 58 64 70
19 18 17 17 16 15 17 21 21 23 26 27 26 25 23 22 21 21 23 25 28 29 30 30 29 30 28 26 28 31 34 37 40 41 43 46 49 52 55 60 65 70 72
22 22 21 22 22 20 19 20 23 28 27 30 31 30 28 29 31 29 27 28 30 31 32 33 33 34 30 29 32 35 37 39 42 44 46 49 53 56 61 65 69 73 74
31 27 24 24 24 24 23 22 22 25 31 33 33 32 31 33 34 34 34 34 35 36 36 37 36 35 34 32 35 38 39 43 46 51 54 56 57 62 66 67 74 73 77
35 35 31 29 28 27 26 25 23 24 25 32 35 36 36 36 36 36 39 41 42 40 41 42 45 45 41 38 38 41 46 50 51 54 52 53 55 61 69 74 78 80 86
40 40 38 36 34 31 29 30 29 27 28 30 31 37 36 39 41 39 42 46 47 45 46 46 48 46 46 45 43 47 49 51 52 59 64 63 67 73 76 78 80 85 92
47 44 41 40 41 40 36 34 33 33 32 31 34 35 40 40 44 46 47 49 47 48 50 52 53 53 52 49 47 47 53 56 48 66 68 65 71 76 79 81 86 90 96
45 46 46 44 44 44 43 43 43 39 36 37 37 38 42 44 48 50 52 56 56 55 55 54 55 55 55 56 53 48 54 58 57 58 61 69 75 77 83 85 87 95 100
Wind_Direction
208 193 111 2 357 13 17 33 35 61 59 89 115 128 136 137 140 161 169 179 181 191 191 187 187 188 188 181 174 172 168 180 188 192 199 203 206 210 216 223 231 237 243
206 166 126 42 13 27 40 41 34 47 65 74 78 89 103 97 112 135 155 176 181 187 195 195 191 191 191 179 175 178 174 176 184 191 200 200 206 220 229 234 241 245 257
190 168 122 69 15 41 44 40 38 69 83 84 87 96 105 110 123 134 141 140 152 170 188 199 197 194 190 177 177 174 178 182 190 200 201 207 217 227 236 240 245 253 258
191 183 134 94 47 35 46 50 60 85 95 105 91 85 90 89 84 86 100 156 158 158 178 185 194 197 192 184 181 179 191 192 197 203 207 216 223 238 242 246 254 258 264
198 193 158 125 85 48 45 54 60 100 119 116 110 89 93 88 68 68 82 100 122 132 141 158 171 189 196 188 188 190 198 201 209 218 227 230 234 240 246 254 264 268 271
201 204 178 177 151 72 64 46 64 111 110 112 97 100 92 89 76 62 106 106 103 106 111 110 122 143 183 192 193 197 201 215 222 224 220 232 238 247 249 258 264 269 268
204 212 199 191 229 163 83 67 55 79 118 125 119 121 114 111 109 85 123 111 118 118 122 137 139 140 148 179 194 200 203 211 218 225 234 244 246 252 250 258 260 263 271
18 209 223 222 242 225 248 18 62 101 70 136 157 145 132 117 111 111 107 134 139 143 140 143 144 157 164 173 187 198 206 212 219 229 237 238 240 244 250 253 266 271 284
19 299 218 228 246 243 251 262 275 305 116 162 171 186 162 131 136 130 129 139 154 142 156 159 169 177 183 184 194 202 204 215 223 228 232 239 252 245 259 265 268 276 284
1 4 247 226 230 246 247 251 259 268 245 158 187 195 246 166 176 160 156 170 167 183 175 196 179 182 194 202 215 213 215 227 229 240 241 252 254 262 263 264 268 287 293
1 329 305 232 231 241 241 257 261 242 237 239 205 201 227 228 225 200 194 209 206 195 203 209 207 216 215 219 219 228 241 242 244 248 253 255 260 265 264 267 275 286 295
349 355 308 275 245 241 241 243 241 234 237 241 244 241 220 223 234 230 220 220 223 228 221 219 216 225 231 238 243 243 244 247 250 254 255 255 254 261 261 268 279 274 285
278 294 328 311 272 260 243 240 240 244 243 241 244 249 243 246 231 230 231 243 247 256 242 238 233 237 239 247 252 256 259 253 256 263 265 262 259 260 260 273 276 283 287
254 248 281 298 307 273 263 259 251 240 240 238 237 234 232 236 240 242 245 246 248 254 257 260 260 255 260 255 258 263 261 263 263 268 271 269 269 273 271 276 285 292 291
323 256 256 277 275 285 275 270 259 253 248 248 248 242 242 236 236 242 244 247 250 254 257 259 260 260 259 263 265 270 273 273 270 274 271 277 274 270 277 283 287 286 284
331 286 267 265 264 274 278 276 268 261 258 256 252 247 244 245 245 244 248 252 254 254 254 255 256 259 261 262 265 266 268 271 276 274 278 279 283 283 282 280 280 283 287
335 328 299 281 290 268 271 273 267 261 262 261 260 264 265 260 258 256 254 251 248 252 254 256 257 260 262 264 266 269 271 272 274 274 276 276 275 275 276 281 285 291 293
308 319 319 300 281 282 278 265 268 267 262 260 258 256 257 265 264 264 262 257 251 251 253 256 260 263 267 269 270 270 272 274 275 277 277 278 281 282 286 291 296 298 299
289 297 310 304 311 288 280 280 269 265 272 276 274 263 259 257 258 261 266 270 269 265 266 268 269 269 272 275 276 278 281 282 282 282 283 285 287 292 295 297 298 299 300
286 291 291 292 295 295 300 276 267 266 266 269 273 272 273 270 266 261 261 263 263 261 261 261 259 260 260 269 282 287 288 289 289 291 296 298 299 299 297 296 297 300 304
280 284 296 293 290 295 293 294 286 263 262 263 266 268 267 268 271 270 269 269 270 273 271 273 276 271 275 283 287 288 291 296 298 297 296 297 298 299 298 302 304 305 307
279 284 289 295 292 290 294 295 289 281 267 262 262 265 268 266 266 268 270 269 271 279 281 281 281 282 285 283 288 287 292 294 295 296 297 300 300 300 303 305 307 310 313
278 283 285 290 294 294 291 291 290 288 284 272 267 265 263 267 267 262 266 268 271 275 275 277 280 282 283 280 282 291 296 296 298 300 299 298 300 303 307 313 314 316 317
275 281 286 289 289 289 286 286 289 287 286 284 282 269 268 266 264 263 264 264 270 274 277 279 279 283 289 282 286 295 296 293 297 304 301 302 310 311 305 310 313 311 313
281 281 283 283 286 285 285 280 280 283 283 287 280 284 279 270 268 266 263 266 267 268 271 276 276 279 282 283 286 291 293 296 292 294 294 299 299 299 306 308 307 308 310
275 278 280 280 280 280 281 281 280 283 285 285 285 283 277 285 282 272 269 268 267 269 270 272 272 276 280 284 281 281 290 292 286 282 286 292 298 301 302 305 304 304 306
Height
10632 10634 10634 10630 10626 10620 10613 10608 10602 10600 10597 10596 10597 10597 10599 10600 10601 10603 10607 10612 10616 10620 10624 10630 10637 10644 10652 10664 10675 10688 10702 10714 10725 10734 10739 10746 10750 10754 10758 10761 10765 10767 10767
10631 10635 10635 10633 10629 10623 10617 10613 10610 10607 10605 10604 10603 10602 10605 10607 10606 10609 10611 10615 10618 10623 10627 10633 10640 10648 10656 10666 10678 10691 10704 10713 10722 10730 10733 10741 10747 10751 10753 10757 10757 10759 10761
10631 10635 10636 10636 10631 10628 10623 10620 10617 10613 10612 10612 10611 10610 10610 10610 10612 10614 10615 10619 10622 10626 10629 10634 10644 10652 10660 10671 10683 10694 10704 10713 10720 10725 10734 10739 10743 10745 10747 10748 10751 10753 10755
10633 10636 10638 10638 10635 10631 10629 10628 10625 10622 10620 10619 10618 10616 10617 10617 10617 10617 10618 10620 10624 10628 10630 10635 10644 10655 10666 10676 10686 10696 10705 10712 10720 10725 10730 10735 10738 10738 10741 10742 10745 10747 10748
10634 10637 10639 10640 10638 10636 10633 10633 10632 10629 10628 10625 10625 10626 10623 10624 10623 10623 10622 10622 10626 10630 10635 10641 10650 10658 10669 10680 10687 10695 10705 10712 10719 10723 10727 10728 10731 10732 10734 10737 10740 10742 10740
10635 10638 10640 10641 10641 10641 10638 10636 10637 10636 10635 10634 10633 10633 10632 10631 10635 10632 10631 10632 10633 10637 10643 10651 10659 10665 10672 10683 10692 10701 10708 10713 10717 10719 10722 10723 10727 10730 10731 10734 10738 10736 10732
10635 10637 10640 10642 10643 10643 10642 10642 10641 10641 10641 10641 10641 10640 10639 10640 10642 10641 10644 10644 10646 10650 10656 10661 10667 10674 10680 10687 10694 10701 10706 10709 10713 10717 10718 10721 10724 10726 10727 10727 10728 10725 10721
10635 10637 10639 10642 10643 10644 10644 10644 10645 10645 10645 10646 10645 10646 10646 10648 10648 10650 10650 10654 10656 10659 10663 10667 10672 10677 10684 10690 10695 10699 10705 10708 10711 10713 10715 10717 10719 10717 10717 10718 10716 10714 10711
10637 10637 10638 10640 10643 10644 10645 10646 10647 10647 10647 10647 10648 10649 10651 10653 10654 10657 10658 10659 10662 10666 10669 10672 10677 10680 10685 10690 10695 10698 10701 10701 10703 10704 10706 10707 10709 10704 10707 10708 10704 10701 10699
10639 10639 10638 10639 10641 10643 10644 10646 10647 10648 10649 10650 10650 10651 10652 10655 10657 10659 10661 10665 10668 10671 10672 10675 10677 10680 10684 10689 10694 10695 10695 10697 10698 10700 10701 10702 10698 10699 10697 10690 10691 10691 10690
10640 10639 10639 10639 10639 10640 10642 10643 10645 10647 10648 10650 10651 10651 10653 10655 10657 10660 10662 10664 10667 10670 10673 10675 10677 10680 10682 10685 10687 10689 10692 10693 10693 10694 10692 10690 10691 10689 10686 10686 10685 10682 10680
10639 10639 10638 10639 10639 10639 10640 10641 10642 10644 10647 10648 10650 10652 10652 10654 10656 10658 10661 10663 10665 10668 10671 10673 10675 10678 10680 10681 10683 10685 10685 10683 10684 10684 10684 10684 10684 10681 10679 10678 10677 10671 10666
10637 10637 10637 10637 10637 10638 10638 10639 10641 10641 10642 10644 10646 10648 10651 10652 10653 10656 10658 10660 10662 10663 10666 10669 10672 10673 10676 10677 10678 10680 10680 10679 10678 10678 10678 10675 10672 10671 10669 10668 10662 10657 10651
10635 10635 10635 10636 10636 10636 10636 10636 10637 10639 10640 10640 10641 10643 10645 10647 10649 10650 10652 10654 10656 10658 10659 10660 10662 10664 10666 10667 10670 10670 10670 10670 10670 10668 10666 10663 10660 10657 10655 10652 10649 10641 10636
10635 10634 10634 10634 10634 10634 10634 10634 10635 10635 10636 10638 10639 10639 10639 10641 10643 10645 10647 10649 10651 10652 10653 10653 10654 10655 10656 10659 10657 10656 10657 10657 10656 10653 10651 10648 10645 10645 10643 10637 10632 10630 10624
10634 10633 10632 10632 10632 10632 10632 10632 10632 10632 10633 10634 10635 10636 10636 10637 10639 10640 10641 10643 10644 10645 10645 10645 10645 10646 10648 10649 10648 10647 10646 10645 10641 10639 10638 10636 10633 10631 10627 10624 10622 10617 10610
10632 10631 10630 10629 10629 10629 10630 10630 10630 10630 10630 10631 10632 10633 10633 10634 10635 10636 10636 10637 10638 10638 10637 10637 10638 10639 10639 10639 10637 10635 10634 10632 10631 10629 10626 10623 10622 10620 10618 10613 10608 10602 10594
10628 10629 10628 10627 10627 10626 10626 10627 10627 10627 10628 10628 10629 10630 10631 10630 10631 10631 10630 10630 10631 10631 10630 10629 10630 10630 10629 10629 10629 10627 10626 10624 10622 10620 10617 10614 10611 10607 10603 10600 10593 10585 10578
10625 10624 10625 10625 10624 10624 10623 10622 10623 10623 10624 10624 10625 10625 10626 10627 10626 10626 10625 10624 10623 10624 10623 10623 10623 10622 10621 10620 10619 10618 10616 10614 10612 10608 10605 10602 10598 10595 10591 10584 10578 10572 10563
10621 10620 10620 10620 10619 10619 10619 10618 10618 10618 10618 10618 10618 10619 10619 10619 10620 10619 10618 10618 10616 10615 10615 10615 10614 10613 10612 10612 10611 10609 10606 10603 10599 10595 10591 10587 10584 10579 10573 10568 10562 10554 10545
10616 10615 10614 10614 10613 10613 10613 10612 10611 10611 10610 10610 10610 10611 10612 10611 10610 10611 10611 10609 10608 10606 10605 10604 10604 10603 10602 10601 10600 10597 10595 10591 10587 10583 10579 10575 10571 10565 10558 10552 10544 10535 10527
10606 10609 10608 10607 10606 10606 10605 10605 10605 10603 10602 10602 10602 10603 10603 10602 10602 10602 10601 10601 10599 10598 10597 10597 10596 10595 10593 10592 10589 10587 10584 10581 10577 10573 10569 10564 10558 10551 10544 10538 10527 10518 10508
10594 10597 10600 10600 10600 10599 10598 10597 10596 10596 10594 10592 10592 10593 10595 10594 10593 10592 10592 10591 10589 10590 10588 10587 10586 10585 10583 10581 10579 10576 10574 10570 10565 10560 10554 10549 10543 10536 10528 10518 10509 10498 10489
10585 10586 10588 10590 10591 10591 10590 10589 10588 10587 10587 10585 10584 10581 10582 10584 10584 10583 10581 10579 10579 10579 10578 10577 10575 10575 10573 10570 10567 10564 10561 10557 10551 10546 10540 10535 10527 10520 10513 10505 10494 10484 10474
10571 10575 10577 10577 10577 10576 10578 10579 10579 10578 10577 10576 10575 10573 10570 10570 10569 10571 10572 10569 10569 10568 10565 10564 10563 10561 10560 10558 10556 10553 10549 10545 10542 10537 10529 10522 10516 10508 10500 10490 10481 10470 10458
10562 10561 10562 10562 10562 10562 10563 10564 10565 10567 10567 10566 10564 10562 10560 10558 10556 10556 10555 10554 10553 10554 10554 10551 10550 10548 10546 10545 10544 10540 10537 10533 10526 10520 10516 10510 10501 10493 10485 10476 10466 10454 10443